(337) Devosa
ephemeris date magn radius delta ra dec elong phase
Today9 Jul 202513.82.140 AU2.794 AU04h10m+25°52'41.4°18.3°
Opposition13 Jan 202611.22.069 AU1.099 AU07h53m+34°15'166.8°6.2°
(337) Devosa - 2025-07-09
astro.vanbuitenen.nl


 
-1 year
-1 month
-1 day
Now
+1 day
+1 month
+1 year

The interactive orbit chart above shows the body's path through the solar system and its position at the given date. Green and blue lines are shown perpendicular to the ecliptic plane: Green if the path is above the ecliptic plane, blue if it is below. (Left-click and drag to rotate the view; Right-click and drag to move the view; Use scroll wheel to zoom in our out.)

The orbital elements of Devosa are:

            e (Eccentricity)                : 0.1369603
            a (Semimajor axis)              : 2.3827225
            i (Inclination)                 : 7.85998
            Ω (Longitude of ascending node) : 355.32562
            ω (Argument of perihelion)      : 99.54314
            M (Mean anomaly)                : 305.91535
            Epoch                           : 2025 May 05

            L (Longitude of perihelion)     : 274.95758
            B (Latitude of perihelion)      : 7.75053
            P (Orbital period in years)     : 3.68            
        

The light curve chart below shows the estimated development of the minor planet's magnitude.


The all-sky chart below shows the path of the minor planet over the same period as the light curve. The current position is marked yellow.





The following chart shows the path of the minor planet in the next few days. The field of view is optimized for (~10x50) binoculars and finderscopes. A more printer-friendly version of the same chart can be found below.




Ephemerides:
Date       Time       RA (2000)    DEC (2000)    delta   radius  elong  phase   PA    magn
2025-07-09 00:00 UT   04 10 36.6   +25 52 56     2.794    2.140   41.4   18.3   265   13.8 
2025-07-09 04:13 UT   04 10 59.7   +25 54 15     2.792    2.140   41.5   18.4   265   13.8 
2025-07-10 00:00 UT   04 12 48.0   +26 00 24     2.785    2.139   41.9   18.5   265   13.8 
2025-07-11 00:00 UT   04 14 59.6   +26 07 47     2.777    2.138   42.3   18.7   265   13.8 
2025-07-12 00:00 UT   04 17 11.3   +26 15 04     2.768    2.136   42.8   18.8   265   13.8 
2025-07-13 00:00 UT   04 19 23.2   +26 22 15     2.760    2.135   43.2   19.0   265   13.8 
2025-07-14 00:00 UT   04 21 35.2   +26 29 20     2.751    2.134   43.7   19.2   266   13.8 
2025-07-15 00:00 UT   04 23 47.3   +26 36 19     2.742    2.133   44.1   19.4   266   13.8 
2025-07-16 00:00 UT   04 25 59.6   +26 43 13     2.734    2.132   44.6   19.5   266   13.8 
2025-07-17 00:00 UT   04 28 11.9   +26 49 60     2.725    2.131   45.0   19.7   266   13.8 
2025-07-18 00:00 UT   04 30 24.4   +26 56 41     2.716    2.130   45.4   19.9   266   13.8 
2025-07-19 00:00 UT   04 32 37.0   +27 03 16     2.707    2.129   45.9   20.0   266   13.8 
2025-07-20 00:00 UT   04 34 49.6   +27 09 45     2.698    2.128   46.3   20.2   267   13.8 
2025-07-21 00:00 UT   04 37 02.4   +27 16 08     2.689    2.127   46.8   20.4   267   13.8 
2025-07-22 00:00 UT   04 39 15.2   +27 22 25     2.680    2.126   47.2   20.5   267   13.8 
2025-07-23 00:00 UT   04 41 28.1   +27 28 36     2.671    2.125   47.7   20.7   267   13.8 
2025-07-24 00:00 UT   04 43 41.0   +27 34 41     2.662    2.124   48.2   20.9   267   13.7 
2025-07-25 00:00 UT   04 45 54.0   +27 40 40     2.653    2.122   48.6   21.0   267   13.7 


    Terminology:
            
    delta:  distance between minor planet and earth in AU
    radius: distance between minor planet and sun in AU
    magn:   magnitude (brightness) estimate    
    ra:     right ascension in hours (24h = 360deg)
    dec:    declination in degrees
    elong:  elongation in degrees (angle sun-earth-minor planet)    
    phase:  phase angle in degrees (angle sun-minor planet-earth)        
    AU:     Astronomical Unit (mean distance between earth and sun: 149597870.7 km
    

Orbital elements provided by the MPC (Minor Planet Center).
Calculations by a modified version of AAPlus, a C# implementation of the AA+ project by PJ Naughter from the algorithms presented in the book "Astronomical Algorithms" by Jean Meeus.
NGC2000 dso catalog and star labels from VizieR as provided by the Strasbourg astronomical Data Center.
Tycho2 catalog from the ESO archive.